Location: Crescent
(42.8242°N, 73.7329°W)
Time: 17:42:49
(UTC+00:00)

Vanguard 1 - Pass Details

Date: 25 February 2026
Orbit: 653 x 3818 km, 34.2° (Epoch: 5 March)

Event Time Altitude Azimuth Distance (km) Brightness Sun altitude
Rises 21:54:10 0° 269° (W) 4,733 15.3 7.2°
Reaches altitude 10° 21:56:48 10° 264° (W) 4,064 15.3 6.7°
Maximum altitude 22:08:03 55° 191° (S) 2,975 12.8 4.8°
Drops below altitude 10° 22:27:28 10° 121° (ESE) 6,660 13.9 1.3°
Sets 22:33:19 0° 118° (ESE) 7,877 14.2 0.3°
